• In Uzbekistan
  • List of Countries
  • For 7 days
  • Water Temperature
  • Satellite Maps
  • Weather Map
  • Weather Widgets
  • user-avatar
    Login

    Hourly Weather Namibe

    Today, 28 July, Friday

    Time Temperature Precipitation Wind Pressure Humidity
    00:00 +21°C° 0 mm 3 mps 762 mmHg 80%
    01:00 +21°C° 0 mm 3 mps 762 mmHg 80%
    02:00 +20°C° 0 mm 2 mps 761 mmHg 80%
    03:00 +20°C° 0 mm 2 mps 761 mmHg 79%
    04:00 +20°C° 0 mm 2 mps 760 mmHg 79%
    05:00 +20°C° 0 mm 2 mps 760 mmHg 78%
    06:00 +20°C° 0 mm 3 mps 760 mmHg 76%
    07:00 +21°C° 0 mm 3 mps 760 mmHg 75%
    08:00 +25°C° 0 mm 3 mps 761 mmHg 61%
    09:00 +28°C° 0 mm 4 mps 761 mmHg 47%
    10:00 +32°C° 0 mm 4 mps 761 mmHg 33%
    11:00 +33°C° 0 mm 5 mps 760 mmHg 29%
    12:00 +35°C° 0 mm 5 mps 760 mmHg 24%
    13:00 +38°C° 0 mm 6 mps 759 mmHg 19%
    14:00 +35°C° 0 mm 6 mps 759 mmHg 25%
    15:00 +34°C° 0 mm 6 mps 758 mmHg 30%
    16:00 +32°C° 0 mm 7 mps 758 mmHg 36%
    17:00 +29°C° 0 mm 6 mps 758 mmHg 40%
    18:00 +28°C° 0 mm 5 mps 758 mmHg 44%
    19:00 +26°C° 0 mm 4 mps 759 mmHg 49%
    20:00 +25°C° 0 mm 3 mps 759 mmHg 49%
    21:00 +25°C° 0 mm 2 mps 760 mmHg 49%
    22:00 +25°C° 0 mm 2 mps 760 mmHg 49%
    23:00 +25°C° 0 mm 2 mps 760 mmHg 48%

    Tomorrow, 29 July, Saturday

    Time Temperature Precipitation Wind Pressure Humidity
    00:00 +24°C° 0 mm 2 mps 760 mmHg 48%
    01:00 +24°C° 0 mm 2 mps 760 mmHg 47%
    02:00 +24°C° 0 mm 3 mps 760 mmHg 45%
    03:00 +25°C° 0 mm 3 mps 759 mmHg 44%
    04:00 +25°C° 0 mm 3 mps 759 mmHg 42%
    05:00 +25°C° 0 mm 3 mps 759 mmHg 37%
    06:00 +25°C° 0 mm 4 mps 759 mmHg 32%
    07:00 +25°C° 0 mm 4 mps 759 mmHg 26%
    08:00 +28°C° 0 mm 4 mps 760 mmHg 22%
    09:00 +33°C° 0 mm 4 mps 760 mmHg 17%
    10:00 +36°C° 0 mm 4 mps 760 mmHg 13%
    11:00 +37°C° 0 mm 4 mps 759 mmHg 12%
    12:00 +40°C° 0 mm 4 mps 759 mmHg 11%
    13:00 +42°C° 0 mm 4 mps 758 mmHg 11%
    14:00 +40°C° 0 mm 4 mps 758 mmHg 14%
    15:00 +37°C° 0 mm 5 mps 757 mmHg 18%
    16:00 +36°C° 0 mm 6 mps 757 mmHg 22%
    17:00 +33°C° 0 mm 5 mps 758 mmHg 30%
    18:00 +29°C° 0 mm 3 mps 758 mmHg 38%
    19:00 +26°C° 0 mm 2 mps 759 mmHg 47%
    20:00 +26°C° 0 mm 2 mps 759 mmHg 48%
    21:00 +26°C° 0 mm 1 mps 760 mmHg 50%
    22:00 +25°C° 0 mm 1 mps 760 mmHg 51%
    23:00 +25°C° 0 mm 1 mps 760 mmHg 50%

    Day after tomorrow, 30 July, Sunday

    Time Temperature Precipitation Wind Pressure Humidity
    00:00 +25°C° 0 mm 1 mps 760 mmHg 49%
    01:00 +24°C° 0 mm 1 mps 760 mmHg 48%
    02:00 +24°C° 0 mm 1 mps 759 mmHg 48%
    03:00 +24°C° 0 mm 1 mps 759 mmHg 47%
    04:00 +23°C° 0 mm 1 mps 759 mmHg 47%
    05:00 +23°C° 0 mm 1 mps 759 mmHg 44%
    06:00 +23°C° 0 mm 1 mps 759 mmHg 40%
    07:00 +24°C° 0 mm 1 mps 760 mmHg 37%
    08:00 +26°C° 0 mm 2 mps 760 mmHg 32%
    09:00 +29°C° 0 mm 2 mps 760 mmHg 26%
    10:00 +31°C° 0 mm 2 mps 760 mmHg 21%
    11:00 +33°C° 0 mm 3 mps 760 mmHg 23%
    12:00 +34°C° 0 mm 4 mps 759 mmHg 24%
    13:00 +35°C° 0 mm 5 mps 758 mmHg 26%
    14:00 +34°C° 0 mm 5 mps 758 mmHg 31%
    15:00 +33°C° 0 mm 5 mps 758 mmHg 37%
    16:00 +30°C° 0 mm 5 mps 757 mmHg 43%
    17:00 +28°C° 0 mm 4 mps 758 mmHg 51%
    18:00 +26°C° 0 mm 3 mps 759 mmHg 60%
    19:00 +24°C° 0 mm 3 mps 759 mmHg 68%
    20:00 +24°C° 0 mm 2 mps 760 mmHg 70%
    21:00 +24°C° 0 mm 1 mps 760 mmHg 71%
    22:00 +23°C° 0 mm 1 mps 761 mmHg 73%
    23:00 +23°C° 0 mm 1 mps 760 mmHg 72%

    31 July, Monday

    Time Temperature Precipitation Wind Pressure Humidity
    00:00 +23°C° 0 mm 1 mps 760 mmHg 72%
    01:00 +21°C° 0 mm 0 mps 760 mmHg 72%
    02:00 +20°C° 0 mm 0 mps 759 mmHg 72%
    03:00 +20°C° 0 mm 0 mps 759 mmHg 72%
    04:00 +20°C° 0 mm 0 mps 759 mmHg 73%
    05:00 +22°C° 0 mm 1 mps 759 mmHg 73%
    06:00 +22°C° 0 mm 1 mps 760 mmHg 72%
    07:00 +22°C° 0 mm 1 mps 760 mmHg 72%
    08:00 +23°C° 0 mm 2 mps 760 mmHg 64%
    09:00 +25°C° 0 mm 2 mps 761 mmHg 56%
    10:00 +27°C° 0 mm 2 mps 761 mmHg 49%
    11:00 +28°C° 0 mm 3 mps 760 mmHg 45%
    12:00 +29°C° 0 mm 3 mps 760 mmHg 42%
    13:00 +32°C° 0 mm 4 mps 759 mmHg 38%
    14:00 +30°C° 0 mm 4 mps 759 mmHg 40%
    15:00 +30°C° 0 mm 4 mps 758 mmHg 41%
    16:00 +29°C° 0 mm 5 mps 758 mmHg 42%
    17:00 +27°C° 0 mm 4 mps 759 mmHg 47%
    18:00 +26°C° 0 mm 4 mps 759 mmHg 51%
    19:00 +23°C° 0 mm 4 mps 760 mmHg 55%
    20:00 +24°C° 0 mm 3 mps 760 mmHg 57%
    21:00 +22°C° 0 mm 3 mps 761 mmHg 59%
    22:00 +22°C° 0 mm 3 mps 761 mmHg 61%
    23:00 +22°C° 0 mm 3 mps 761 mmHg 61%

    1 August, Tuesday

    Time Temperature Precipitation Wind Pressure Humidity
    00:00 +21°C° 0 mm 3 mps 761 mmHg 61%
    01:00 +21°C° 0 mm 2 mps 761 mmHg 61%
    02:00 +21°C° 0 mm 2 mps 760 mmHg 61%
    03:00 +21°C° 0 mm 2 mps 760 mmHg 61%
    04:00 +20°C° 0 mm 2 mps 760 mmHg 61%
    05:00 +20°C° 0 mm 2 mps 760 mmHg 63%
    06:00 +20°C° 0 mm 2 mps 761 mmHg 64%
    07:00 +20°C° 0 mm 2 mps 761 mmHg 66%
    08:00 +23°C° 0 mm 2 mps 761 mmHg 61%
    09:00 +25°C° 0 mm 2 mps 761 mmHg 56%
    10:00 +26°C° 0 mm 2 mps 761 mmHg 50%
    11:00 +28°C° 0 mm 3 mps 761 mmHg 47%
    12:00 +29°C° 0 mm 3 mps 760 mmHg 43%
    13:00 +30°C° 0 mm 3 mps 759 mmHg 39%
    14:00 +30°C° 0 mm 4 mps 759 mmHg 39%
    15:00 +30°C° 0 mm 4 mps 759 mmHg 39%
    16:00 +30°C° 0 mm 4 mps 758 mmHg 38%
    17:00 +28°C° 0 mm 4 mps 759 mmHg 46%
    18:00 +26°C° 0 mm 3 mps 759 mmHg 54%
    19:00 +24°C° 0 mm 3 mps 760 mmHg 62%
    20:00 +24°C° 0 mm 3 mps 760 mmHg 63%
    21:00 +24°C° 0 mm 3 mps 760 mmHg 64%
    22:00 +22°C° 0 mm 3 mps 761 mmHg 65%
    23:00 +22°C° 0 mm 3 mps 761 mmHg 66%

    2 August, Wednesday

    Time Temperature Precipitation Wind Pressure Humidity
    00:00 +22°C° 0 mm 3 mps 760 mmHg 67%
    01:00 +21°C° 0 mm 3 mps 760 mmHg 68%
    02:00 +21°C° 0 mm 2 mps 760 mmHg 71%
    03:00 +20°C° 0 mm 2 mps 760 mmHg 74%
    04:00 +20°C° 0 mm 2 mps 760 mmHg 77%
    05:00 +20°C° 0 mm 2 mps 760 mmHg 79%
    06:00 +19°C° 0 mm 2 mps 761 mmHg 82%
    07:00 +19°C° 0 mm 2 mps 761 mmHg 84%
    08:00 +21°C° 0 mm 2 mps 761 mmHg 74%
    09:00 +24°C° 0 mm 2 mps 761 mmHg 64%
    10:00 +26°C° 0 mm 2 mps 761 mmHg 54%
    11:00 +29°C° 0 mm 2 mps 760 mmHg 46%
    12:00 +31°C° 0 mm 3 mps 760 mmHg 39%
    13:00 +34°C° 0 mm 3 mps 759 mmHg 31%
    14:00 +33°C° 0 mm 4 mps 759 mmHg 36%
    15:00 +32°C° 0 mm 4 mps 758 mmHg 41%
    16:00 +30°C° 0 mm 5 mps 758 mmHg 46%
    17:00 +28°C° 0 mm 4 mps 758 mmHg 53%
    18:00 +26°C° 0 mm 3 mps 759 mmHg 60%
    19:00 +24°C° 0 mm 3 mps 760 mmHg 67%
    20:00 +24°C° 0 mm 2 mps 760 mmHg 66%
    21:00 +24°C° 0 mm 2 mps 761 mmHg 66%
    22:00 +24°C° 0 mm 2 mps 761 mmHg 65%
    23:00 +23°C° 0 mm 2 mps 761 mmHg 66%
    Show more